Regional Weather Roundup
Issued by NWS

Home | Current Version | Previous Version | Text Only | Print | Product List | Glossary Off
Versions: 1 2 3 4 5 6 7 8 9 10 11 12 13 14 15 16 17 18 19 20 21 22 23 24 25 26 27 28 29 30 31 32 33 34 35 36 37 38 39 40 41 42 43 44 45 46 47 48 49 50

000
ASUS45 KCYS 030510
RWRWY

WYOMING REGIONAL WEATHER ROUNDUP
NATIONAL WEATHER SERVICE CHEYENNE WY
1100 PM MDT TUE JUN 02 2015

NOTE:  "FAIR" INDICATES FEW OR NO CLOUDS BELOW 12,000 FEET
WITH NO SIGNIFICANT WEATHER AND/OR OBSTRUCTIONS TO VISIBILITY.

WYZ001-030600-
YELLOWSTONE NATIONAL PARK

CITY           SKY/WX    TMP DP  RH WIND       PRES   REMARKS
LK YELLOWSTONE   N/A     40  35  83 CALM      30.15R
W YELLOWSTONE  NOT AVBL

$$
WYZ002>013-054>058-071-098>099-030600-
NORTHERN WYOMING

CITY           SKY/WX    TMP DP  RH WIND       PRES   REMARKS
JACKSON        FAIR      48  39  71 CALM      30.07S
CODY           FAIR      57  48  72 NW10      30.02R
GREYBULL       MOCLDY    61  47  59 NW8       29.92R
WORLAND        FAIR      54  51  90 CALM      29.93R
SHERIDAN       MOCLDY    52  49  89 NW6       30.01R
BUFFALO        FAIR      49  46  90 SW6       30.04R
GILLETTE       FAIR      50  49  96 W3        29.97R
HULETT         FAIR      54  50  87 E5        29.96R
NEWCASTLE      FAIR      55  43  62 N10       29.91S

$$
WYZ014>020-022>026-101>103-030600-
CENTRAL WYOMING

CITY           SKY/WX    TMP DP  RH WIND       PRES   REMARKS
BIG PINEY      FAIR      49  38  65 NE9       30.09S
PINEDALE       FAIR      46  39  76 W6        30.10R
DUBOIS         FAIR      48  36  61 W8        30.10S
LANDER         FAIR      57  41  55 SW10      29.97R
RIVERTON       FAIR      57  44  62 N5        29.98R
CASPER         FAIR      50  47  89 NW5       30.02R
DOUGLAS        FAIR      60  52  74 MISG      29.95R

$$
WYZ021-027>030-104>119-030600-
SOUTHERN WYOMING

CITY           SKY/WX    TMP DP  RH WIND       PRES   REMARKS
EVANSTON       FAIR      57  36  45 CALM      30.10S
KEMMERER       FAIR      50  36  57 N7        30.12R
FORT BRIDGER   CLEAR     55  37  50 W9        30.12S
ROCK SPRINGS   FAIR      59  31  34 NW9       30.08R
DIXON          FAIR      52  36  53 E3        30.08R
RAWLINS        FAIR      55  35  47 NW12      30.05R
SARATOGA       FAIR      48  36  61 CALM      30.09R
LARAMIE        FAIR      52  36  54 S8        30.08R
CHEYENNE       FAIR      57  49  74 CALM      29.99F
TORRINGTON     FAIR      58  48  69 NE8       29.88R
PINE BLUFFS    FAIR      57  54  88 W3        29.94R

$$



USA.gov is the U.S. government's official web portal to all federal, state and local government web resources and services.